COSMOS 2499 DEB, 55727

Orbit data source: Space-Track

COSMOS 2499 DEB, 55727 is space debris in LEO originally from a launch on Fri, 23 May 2014 UTC launched from the Plesetsk Missile And Space Complex (PKMTR). Debris objects in space refer to the collection of defunct objects orbiting the Earth. Examples of debris include non-operational satellites, rocket bodies, and fragments generated from explosions, collisions, or faulty payload assembly.

Loading next visibility...
Identifier
55727, 2014-028AP
Orbit
LEO
Country
Flag of CISCIS
Related business
Manufacturer
TsNIIKhM
Mission
Spacecraft
Bus & Motor
Unknown
Mass
Unknown
Launch date (UTC)
2014-05-23 (12 years ago)
Launch vehicle
Unknown
Launch site
Plesetsk Missile And Space Complex (PKMTR)
Object type
Payload
Rocket body
Debris
Shape & HBR
Unknown shape, 0.1 m
Radar Cross Section
Small (<0.1 m²)

Expand to show TLE details & history
Last TLE update: 20 hours ago

TLE from 20 hours ago
0 COSMOS 2499 DEB
1 55727U 14028AP  25348.76577725  .00000240  00000-0  93258-3 0  9995
2 55727  82.2384   1.8232 0191421 106.9366 255.2815 12.79519161135908
Epoch: 2025-12-14T18:22Z
TLE epoch observation values (Epoch: 2025-12-14T18:22:43.154Z)
Latitude
0.00002°
Longitude
2.4694°
Altitude
1,386.339 km
Speed
7.148 km/s
True Right ascension
00h 07m 17s
True Declination
0° 00' 00"
Sunlit
Object was in daylight at epoch
Visualization orbit readout
Latitude
Unknown
Longitude
Unknown
Altitude
Unknown
Speed
Unknown
Apparent Right ascension
Unknown
Apparent Declination
Unknown
Sunlit
N/A
Visualization observer readout
Local Sidereal Time
13:18:46
Azimuth
Unknown
Elevation
Unknown
Doppler factor
Unknown
Orbital elements
Apogee altitude
1,488.467 km
Perigee altitude
1,192.957 km
Semi-major axis
7,718.849 km
Eccentricity
0.01914
Inclination
82.2384°
RAAN
1.8232°
Arg. of periapsis
106.9366°
True anomaly
253.17325°
Mean anomaly
255.2815°
Eccentric anomaly
254.22604°
Mean motion
3.20047 °/min
Orbital period
112.48 mins
BSTAR
0.00093258
Loading maneuver chart data...
Computing Atmospheric mass density...
Loading historical data...
Loading historical data...
Loading historical data...
Loading historical data...
Loading historical data...
Loading historical data...
Loading historical data...

Documentation

Showing up to 5 results
|